weather.gov     
National Weather Service

Regional Weather Roundup
NWS Homepage
This page is being discontinued on March 12, 2014.
The same data is available at this site. Please update your bookmarks.
Thank you, and we apologize for the inconvenience.
Please send an email to SR-SRH.Webmaster@noaa.gov with any concerns.


Current Version
Previous Version:    01  02  03  04  05  06  07  08  09  10  11  12  13  14  15  16  17  18  19  20  21  22  23  24  25  26  27  
[Printable]
684
ASUS44 KLZK 311805
RWRLZK

WEATHER ROUNDUP FOR ARKANSAS
NATIONAL WEATHER SERVICE LITTLE ROCK AR
100 PM CDT FRI OCT 31 2014

NOTE: "FAIR" INDICATES FEW OR NO CLOUDS BELOW 12,000 FEET WITH NO
SIGNIFICANT WEATHER AND/OR OBSTRUCTIONS TO VISIBILITY.

ARZ001-003-010-029-311900-
NORTHWEST ARKANSAS

CITY           SKY/WX    TMP DP  RH WIND       PRES   REMARKS
FAYETTEVILLE   MOSUNNY   50  35  56 N13       30.35S
6HR MIN TEMP:  46; 6HR MAX TEMP:  50;

FORT SMITH     PTSUNNY   59  39  47 N14       30.32F
6HR MIN TEMP:  49; 6HR MAX TEMP:  59;

HARRISON       MOSUNNY   52  34  50 NW15G23   30.30S
6HR MIN TEMP:  47; 6HR MAX TEMP:  52;

BENTONVILLE    SUNNY     48  28  46 N14G20    30.36F
6HR MIN TEMP:  46; 6HR MAX TEMP:  48;

ROGERS         SUNNY     48  30  49 N10G20    30.36S
6HR MIN TEMP:  45; 6HR MAX TEMP:  48;

SILOAM SPGS    SUNNY     48  32  53 N14       30.38S
6HR MIN TEMP:  46; 6HR MAX TEMP:  52;

HIGHFILL       LGT RAIN  50  32  50 N16G24    30.36S
6HR MIN TEMP:  47; 6HR MAX TEMP:  51; 6HR PCP: TRACE;

SPRINGDALE     SUNNY     48  34  57 N12G23    30.37F
$$

ARZ004-005-016-311900-
NORTH CENTRAL ARKANSAS

CITY           SKY/WX    TMP DP  RH WIND       PRES   REMARKS
BATESVILLE     PTSUNNY   57  39  51 NW9G16    30.22F
6HR MIN TEMP:  50; 6HR MAX TEMP:  57; 6HR PCP:  0.01;

FLIPPIN        MOSUNNY   54  30  40 N12G21    30.28F
6HR MIN TEMP:  48; 6HR MAX TEMP:  54;

MTN HOME       MOSUNNY   53  33  46 N10G21    30.26F
6HR MIN TEMP:  46; 6HR MAX TEMP:  54;

$$

ARZ040-041-311900-
WEST CENTRAL ARKANSAS

CITY           SKY/WX    TMP DP  RH WIND       PRES   REMARKS
MENA           CLOUDY    59  43  55 N6        30.30S
MOUNT IDA      PTSUNNY   61  42  49 VRB6      30.25S
6HR MIN TEMP:  46; 6HR MAX TEMP:  62;

$$

ARZ009-017-025-026-028-311900-
NORTHEAST ARKANSAS

CITY           SKY/WX    TMP DP  RH WIND       PRES   REMARKS
CORNING        FAIR      55  32  41 NW22G29   30.20S
JONESBORO      PTSUNNY   54  40  59 N15G26    30.19F
6HR MIN TEMP:  48; 6HR MAX TEMP:  56;

NEWPORT        PTSUNNY   59  40  49 NW23G30   30.21F
6HR MIN TEMP:  48; 6HR MAX TEMP:  58;

WALNUT RIDGE   PTSUNNY   55  36  47 NW23G30   30.20F
6HR MIN TEMP:  48; 6HR MAX TEMP:  57;

BLYTHEVILLE    CLOUDY    55  44  66 N24       30.16F
6HR MIN TEMP:  47; 6HR MAX TEMP:  59;

$$

ARZ022-023-033-042-044-311900-
CENTRAL ARKANSAS

CITY           SKY/WX    TMP DP  RH WIND       PRES   REMARKS
LITTLE ROCK    PTSUNNY   63  39  41 NW15G21   30.21F
6HR MIN TEMP:  53; 6HR MAX TEMP:  64;

N LITTLE ROCK  PTSUNNY   61  43  51 N15G26    30.21F
6HR MIN TEMP:  51; 6HR MAX TEMP:  62;

JACKSONVILLE   PTSUNNY   60  42  50 N15G22    30.22S
6HR MIN TEMP:  51; 6HR MAX TEMP:  62;

SEARCY         CLOUDY    58  42  55 NW13G24   30.23S
6HR MIN TEMP:  52; 6HR MAX TEMP:  61;

HOT SPRINGS    PTSUNNY   63  41  44 N13G21    30.25S
6HR MIN TEMP:  50; 6HR MAX TEMP:  63;

RUSSELLVILLE   PTSUNNY   61  40  45 NW10      30.26S
6HR MIN TEMP:  43; 6HR MAX TEMP:  62;

$$

ARZ036-311900-
EAST ARKANSAS

CITY           SKY/WX    TMP DP  RH WIND       PRES   REMARKS
WEST MEMPHIS   PTSUNNY   58  44  60 N17G28    30.15S
6HR MIN TEMP:  48; 6HR MAX TEMP:  59;

$$

ARZ050-053-066-070-073-311900-
SOUTHWEST ARKANSAS

CITY           SKY/WX    TMP DP  RH WIND       PRES   REMARKS
ARKADELPHIA    FAIR      65  46  50 N15       30.22S
6HR MIN TEMP:  52; 6HR MAX TEMP:  65;

CAMDEN         SUNNY     68  41  37 N12G21    30.20S
TEXARKANA      SUNNY     66  44  45 N14G23    30.23F
6HR MIN TEMP:  51; 6HR MAX TEMP:  66;

DE QUEEN       SUNNY     64  44  48 N13G24    30.25F
6HR MIN TEMP:  38; 6HR MAX TEMP:  64;

$$

ARZ056-057-069-311900-
SOUTHEAST ARKANSAS

CITY           SKY/WX    TMP DP  RH WIND       PRES   REMARKS
PINE BLUFF     SUNNY     62  41  46 N20       30.19F
6HR MIN TEMP:  52; 6HR MAX TEMP:  62;

STUTTGART      MOSUNNY   63  43  48 N18G25    30.19F
6HR MIN TEMP:  52; 6HR MAX TEMP:  63;

MONTICELLO     MOSUNNY   63  44  50 N10G17    30.17S
6HR MIN TEMP:  52; 6HR MAX TEMP:  64; 6HR PCP: TRACE;


$$






U.S. Dept. of Commerce
NOAA National Weather Service
1325 East West Highway
Silver Spring, MD 20910
E-mail: w-nws.webmaster@noaa.gov
Page last modified: May 16, 2007
NATIONAL WEATHER SERVICE: for Safety, for Work, for Fun - FOR LIFE